WetterOnline ( https://www.wetteronline.ch )

Wetter aktuell Freising

Aktuelles Wetter: Weihenstephan-Dürnast (478m)

6-stündlich | Neueste Meldungen
Ortszeit Temperatur Wetter
Fr, 06.12. 19:00 -1.8° C wolkenlos
Fr, 06.12. 13:00 -2.1° C Nebel
Fr, 06.12. 7:00 -3.2° C Nebel
Fr, 06.12. 1:00 -2.9° C Nebel
Do, 05.12. 19:00 -2.5° C Nebel
Do, 05.12. 13:00 -2.3° C bedeckt
Do, 05.12. 7:00 -4.1° C Nebel
Do, 05.12. 1:00 -4.1° C leicht bewölkt
Ortszeit Temperatur Wetter
Fr, 06.12. 21:30 -3.2° C wolkig
Fr, 06.12. 21:20 -3.2° C wolkig
Fr, 06.12. 21:10 -3.1° C wolkig
Fr, 06.12. 21:00 -3.0° C wolkig
Fr, 06.12. 20:50 -3.0° C wolkig
Fr, 06.12. 20:40 -2.8° C wolkig
Fr, 06.12. 20:30 -2.9° C wolkig
Fr, 06.12. 20:00 -2.8° C wolkig
Fr, 06.12. 19:30 -2.1° C leicht bewölkt
Fr, 06.12. 19:00 -1.8° C wolkenlos
Fr, 06.12. 18:30 -1.8° C wolkenlos
Fr, 06.12. 18:00 -1.6° C wolkenlos
Ortszeit Relative Feuchte Sichtweite
Fr, 06.12. 19:00 100% 2.4 km
Fr, 06.12. 13:00 99% 0.3 km
Fr, 06.12. 7:00 99% 0.2 km
Fr, 06.12. 1:00 99% 100 m
Do, 05.12. 19:00 99% 100 m
Do, 05.12. 13:00 100% 1.3 km
Do, 05.12. 7:00 99% 0.2 km
Do, 05.12. 1:00 95% 7 km
Ortszeit Relative Feuchte Sichtweite
Fr, 06.12. 21:30 97% 3.7 km
Fr, 06.12. 21:20 97% -
Fr, 06.12. 21:10 97% -
Fr, 06.12. 21:00 97% 3.3 km
Fr, 06.12. 20:50 97% -
Fr, 06.12. 20:40 99% -
Fr, 06.12. 20:30 96% 2.9 km
Fr, 06.12. 20:00 98% 2.5 km
Fr, 06.12. 19:30 100% 1.6 km
Fr, 06.12. 19:00 100% 2.4 km
Fr, 06.12. 18:30 99% 2.2 km
Fr, 06.12. 18:00 99% 2.9 km
Ortszeit Niederschlagsmenge Niederschlagsart
Fr, 06.12. 19:00 0.0 l/m2 in 12 Std. -
Fr, 06.12. 13:00 0.0 l/m2 in 6 Std. -
Fr, 06.12. 7:00 0.0 l/m2 in 12 Std. -
Fr, 06.12. 1:00 0.0 l/m2 in 6 Std. -
Do, 05.12. 19:00 0.0 l/m2 in 12 Std. -
Do, 05.12. 13:00 0.0 l/m2 in 6 Std. -
Do, 05.12. 7:00 0.0 l/m2 in 12 Std. -
Do, 05.12. 1:00 0.0 l/m2 in 6 Std. -
Ortszeit Niederschlagsmenge Niederschlagsart
Fr, 06.12. 21:30 0.0 l/m2 in 1 Std. -
Fr, 06.12. 21:20 keine Meldung -
Fr, 06.12. 21:10 keine Meldung -
Fr, 06.12. 21:00 0.0 l/m2 in 1 Std. -
Fr, 06.12. 20:50 keine Meldung -
Fr, 06.12. 20:40 keine Meldung -
Fr, 06.12. 20:30 0.0 l/m2 in 1 Std. -
Fr, 06.12. 20:00 0.0 l/m2 in 1 Std. -
Fr, 06.12. 19:30 0.0 l/m2 in 1 Std. -
Fr, 06.12. 19:00 0.0 l/m2 in 1 Std. -
Fr, 06.12. 18:30 0.0 l/m2 in 1 Std. -
Fr, 06.12. 18:00 0.0 l/m2 in 1 Std. -
Ortszeit Stärke Spitze Richtung
km/h Bft. km/h Grad Sektor
Fr, 06.12. 19:00 4 1 11 110° O
Fr, 06.12. 13:00 4 1 11 130° SO
Fr, 06.12. 7:00 6 1 11 190° S
Fr, 06.12. 1:00 4 1 11 220° SW
Do, 05.12. 19:00 7 2 11 210° SW
Do, 05.12. 13:00 4 1 14 70° O
Do, 05.12. 7:00 7 2 14 280° W
Do, 05.12. 1:00 2 1 11 290° W
Ortszeit Stärke Spitze Richtung
km/h Bft. km/h Grad Sektor
Fr, 06.12. 21:30 0 0 4 - -
Fr, 06.12. 21:20 2 1 - 300° NW
Fr, 06.12. 21:10 0 0 - 290° W
Fr, 06.12. 21:00 0 0 4 - -
Fr, 06.12. 20:50 0 0 - - -
Fr, 06.12. 20:40 0 0 - 350° N
Fr, 06.12. 20:30 0 0 4 - -
Fr, 06.12. 20:00 2 1 4 40° NO
Fr, 06.12. 19:30 0 0 4 - -
Fr, 06.12. 19:00 4 1 7 110° O
Fr, 06.12. 18:30 6 1 6 130° SO
Fr, 06.12. 18:00 7 2 7 130° SO
Ortszeit Untergrenze Bedeckung Gattung
total tief tief mittel hoch
Fr, 06.12. 19:00 - 0/8 0/8 - - -
Fr, 06.12. 13:00 <30 m 8/8 0/8 - - -
Fr, 06.12. 7:00 <30 m 8/8 0/8 - - -
Fr, 06.12. 1:00 <30 m 8/8 0/8 - - -
Do, 05.12. 19:00 <30 m 8/8 0/8 - - -
Do, 05.12. 13:00 60 m 8/8 8/8 - - -
Do, 05.12. 7:00 <30 m 8/8 0/8 - - -
Do, 05.12. 1:00 10500 m 6/8 0/8 - - -
Ortszeit Bedeckungsgrad in Achtel und Wolkenuntergrenze
Fr, 06.12. 21:30 8(8700m)
Fr, 06.12. 21:20 8(8700m)
Fr, 06.12. 21:10 8(8700m)
Fr, 06.12. 21:00 8(9000m)
Fr, 06.12. 20:50 8(9000m)
Fr, 06.12. 20:40 8(9000m)
Fr, 06.12. 20:30 8(8700m) 8(9000m)
Fr, 06.12. 20:00 7(9000m) 8(9000m)
Fr, 06.12. 19:30 4(9000m)
Fr, 06.12. 19:00 keine Wolken
Fr, 06.12. 18:30 keine Wolken
Fr, 06.12. 18:00 keine Wolken
Ortszeit Luftdruck NN (hPa) Tendenz (hPa in 3 Std.)
Fr, 06.12. 19:00 1019 - 0,7
Fr, 06.12. 13:00 1022 - 1,8
Fr, 06.12. 7:00 1024 - 0,2
Fr, 06.12. 1:00 1025 - 0,9
Do, 05.12. 19:00 1026 + 0,5
Do, 05.12. 13:00 1026 - 0,1
Do, 05.12. 7:00 1025 + 1,2
Do, 05.12. 1:00 1023 0,0
Ortszeit Luftdruck NN (hPa) Tendenz (hPa in 3 Std.)
Fr, 06.12. 21:30 1019 - 0,6
Fr, 06.12. 21:20 1019 keine Meldung
Fr, 06.12. 21:10 1019 keine Meldung
Fr, 06.12. 21:00 1019 - 0,7
Fr, 06.12. 20:50 1019 keine Meldung
Fr, 06.12. 20:40 1019 keine Meldung
Fr, 06.12. 20:30 1019 - 0,7
Fr, 06.12. 20:00 1019 - 0,6
Fr, 06.12. 19:30 1019 - 0,7
Fr, 06.12. 19:00 1019 - 0,7
Fr, 06.12. 18:30 1019 - 0,8
Fr, 06.12. 18:00 1019 - 0,9
Ortszeit Schneehöhe (cm)
Fr, 06.12. 19:00 0
Fr, 06.12. 13:00 0
Fr, 06.12. 7:00 0
Fr, 06.12. 1:00 0
Do, 05.12. 19:00 0
Do, 05.12. 13:00 0
Do, 05.12. 7:00 0
Do, 05.12. 1:00 0
Ortszeit Schneehöhe (cm)
Fr, 06.12. 21:30 0
Fr, 06.12. 21:20 0
Fr, 06.12. 21:10 0
Fr, 06.12. 21:00 0
Fr, 06.12. 20:50 0
Fr, 06.12. 20:40 0
Fr, 06.12. 20:30 0
Fr, 06.12. 20:00 0
Fr, 06.12. 19:30 0
Fr, 06.12. 19:00 0
Fr, 06.12. 18:30 0
Fr, 06.12. 18:00 0
Link zu dieser Seite / Seite empfehlen

Das Wetter in ...